HISTORICAL SENSOR DATA

Sensor Data Report

DB LIVE
CURRENT TIME--:--:--
DEVICE NETWORK Gateway Status
13 ESP · realtime ~1s · history 60s
Weather WS-MOD-01
ONLINE
Actuator ACT-MOD-01
OFFLINE
Mainboard L3 MB-L3-01
ONLINE
Mainboard L5 MB-L5-01
ONLINE
Remote AC AC-REMOTE-01
ONLINE
PZEM L3-01 PWR-L3-01
OFFLINE
PZEM L3-02 PWR-L3-02
OFFLINE
PZEM L3-03 PWR-L3-03
OFFLINE
PZEM L3-04 PWR-L3-04
OFFLINE
PZEM L5-01 PWR-L5-01
ONLINE
PZEM L5-02 PWR-L5-02
ONLINE
PZEM L5-03 PWR-L5-03
OFFLINE
PZEM L5-04 PWR-L5-04
OFFLINE
REPORT FILTER

Periode & Sensor

DATABASE HISTORY
RESET
QUICK RANGE Hari ini 7 hari 30 hari
PERIODE09 Aug 2026sampai 07 Sep 2026
TOTAL DATA90,955sensor readings
MINIMUM-0.50sesuai filter
AVERAGE72.11sesuai filter
MAXIMUM32,564.20sesuai filter
REPORT RESULT

Data Sensor

09/08/2026 — 07/09/2026 EXPORT CSV
NOTANGGALWAKTUDEVICECHANNELSENSORVALUEUNIT
601 07/09/2026 05:34:00 PWR-L5-01Power Meter L5 PZEM 01 PZEM-L5-01-VOLT PZEM L5-01 Voltage 224.20 V
602 07/09/2026 05:34:00 WS-MOD-01Weather Station Module WS-WIND Kecepatan Angin 6.08 m/s
603 07/09/2026 05:34:00 MB-L3-01Mainboard Lantai 3 L3-SHT-01-RH SHT20 1 Humidity 47.30 %RH
604 07/09/2026 05:34:00 MB-L5-01Mainboard Lantai 5 L5-AI-04 Analog Input 4 3.05 V
605 07/09/2026 05:34:00 MB-L5-01Mainboard Lantai 5 L5-LUX-05 Illuminance / LUX 5 3.20 lux
606 07/09/2026 05:34:00 MB-L3-01Mainboard Lantai 3 L3-AI-05 Analog Input 5 3.12 V
607 07/09/2026 05:33:00 MB-L3-01Mainboard Lantai 3 L3-AI-01 Analog Input 1 3.12 V
608 07/09/2026 05:33:00 MB-L3-01Mainboard Lantai 3 L3-RAD-02 Radiation 2 1.00 W/m²
609 07/09/2026 05:33:00 MB-L3-01Mainboard Lantai 3 L3-SHT-02-T SHT20 2 Temperature 27.90 °C
610 07/09/2026 05:33:00 PWR-L5-02Power Meter L5 PZEM 02 PZEM-L5-02-PF PZEM L5-02 Power Factor 0.00
611 07/09/2026 05:33:00 PWR-L5-02Power Meter L5 PZEM 02 PZEM-L5-02-CURR PZEM L5-02 Current 0.00 A
612 07/09/2026 05:33:00 MB-L3-01Mainboard Lantai 3 L3-LUX-06 Illuminance / LUX 6 2.00 lux
613 07/09/2026 05:33:00 MB-L3-01Mainboard Lantai 3 L3-LUX-02 Illuminance / LUX 2 1.00 lux
614 07/09/2026 05:33:00 MB-L5-01Mainboard Lantai 5 L5-AI-05 Analog Input 5 3.05 V
615 07/09/2026 05:33:00 MB-L5-01Mainboard Lantai 5 L5-LUX-06 Illuminance / LUX 6 1.10 lux
616 07/09/2026 05:33:00 WS-MOD-01Weather Station Module WS-RH Kelembapan Udara 82.90 %RH
617 07/09/2026 05:33:00 PWR-L5-01Power Meter L5 PZEM 01 PZEM-L5-01-ENERGY PZEM L5-01 Energy 0.12 kWh
618 07/09/2026 05:33:00 MB-L3-01Mainboard Lantai 3 L3-AI-06 Analog Input 6 3.12 V
619 07/09/2026 05:33:00 MB-L5-01Mainboard Lantai 5 L5-LUX-04 Illuminance / LUX 4 0.60 lux
620 07/09/2026 05:33:00 MB-L5-01Mainboard Lantai 5 L5-LUX-02 Illuminance / LUX 2 3.60 lux
621 07/09/2026 05:33:00 MB-L5-01Mainboard Lantai 5 L5-ST-01 Surface Temperature 1 22.30 °C
622 07/09/2026 05:33:00 MB-L5-01Mainboard Lantai 5 L5-SHT-01-RH SHT20 1 Humidity 47.70 %RH
623 07/09/2026 05:33:00 PWR-L5-02Power Meter L5 PZEM 02 PZEM-L5-02-FREQ PZEM L5-02 Frequency 50.00 Hz
624 07/09/2026 05:33:00 PWR-L5-02Power Meter L5 PZEM 02 PZEM-L5-02-VOLT PZEM L5-02 Voltage 224.10 V
625 07/09/2026 05:33:00 MB-L3-01Mainboard Lantai 3 L3-AI-04 Analog Input 4 3.12 V
626 07/09/2026 05:33:00 MB-L5-01Mainboard Lantai 5 L5-AI-03 Analog Input 3 3.05 V
627 07/09/2026 05:33:00 MB-L3-01Mainboard Lantai 3 L3-SHT-02-RH SHT20 2 Humidity 46.60 %RH
628 07/09/2026 05:33:00 MB-L5-01Mainboard Lantai 5 L5-HFT-02 Heat Flow Temperature 2 21.40 °C
629 07/09/2026 05:33:00 MB-L5-01Mainboard Lantai 5 L5-BGT-03 Black Globe Temperature 3 25.60 °C
630 07/09/2026 05:33:00 PWR-L5-01Power Meter L5 PZEM 01 PZEM-L5-01-FREQ PZEM L5-01 Frequency 50.00 Hz
631 07/09/2026 05:33:00 MB-L3-01Mainboard Lantai 3 L3-LUX-05 Illuminance / LUX 5 3.40 lux
632 07/09/2026 05:33:00 MB-L3-01Mainboard Lantai 3 L3-SHT-03-RH SHT20 3 Humidity 46.40 %RH
633 07/09/2026 05:33:00 MB-L5-01Mainboard Lantai 5 L5-SHT-01-T SHT20 1 Temperature 27.70 °C
634 07/09/2026 05:33:00 AC-REMOTE-01Remote AC AC-FAN AC Fan Speed 0.00 code
635 07/09/2026 05:33:00 MB-L5-01Mainboard Lantai 5 L5-SHT-02-T SHT20 2 Temperature 28.10 °C
636 07/09/2026 05:33:00 WS-MOD-01Weather Station Module WS-TEMP Suhu Udara 17.90 °C
637 07/09/2026 05:33:00 MB-L3-01Mainboard Lantai 3 L3-AI-02 Analog Input 2 3.12 V
638 07/09/2026 05:33:00 MB-L5-01Mainboard Lantai 5 L5-LUX-01 Illuminance / LUX 1 0.70 lux
639 07/09/2026 05:33:00 MB-L3-01Mainboard Lantai 3 L3-RAD-01 Radiation 1 1.00 W/m²
640 07/09/2026 05:33:00 MB-L3-01Mainboard Lantai 3 L3-LUX-04 Illuminance / LUX 4 0.60 lux
641 07/09/2026 05:33:00 MB-L5-01Mainboard Lantai 5 L5-AI-01 Analog Input 1 3.05 V
642 07/09/2026 05:33:00 PWR-L5-02Power Meter L5 PZEM 02 PZEM-L5-02-ENERGY PZEM L5-02 Energy 0.04 kWh
643 07/09/2026 05:33:00 PWR-L5-01Power Meter L5 PZEM 01 PZEM-L5-01-PF PZEM L5-01 Power Factor 0.39
644 07/09/2026 05:33:00 MB-L5-01Mainboard Lantai 5 L5-SHT-02-RH SHT20 2 Humidity 46.50 %RH
645 07/09/2026 05:33:00 MB-L5-01Mainboard Lantai 5 L5-ST-02 Surface Temperature 2 21.60 °C
646 07/09/2026 05:33:00 MB-L5-01Mainboard Lantai 5 L5-BGT-01 Black Globe Temperature 1 25.80 °C
647 07/09/2026 05:33:00 MB-L5-01Mainboard Lantai 5 L5-SHT-03-T SHT20 3 Temperature 28.00 °C
648 07/09/2026 05:33:00 MB-L5-01Mainboard Lantai 5 L5-AI-06 Analog Input 6 3.05 V
649 07/09/2026 05:33:00 MB-L5-01Mainboard Lantai 5 L5-SHT-03-RH SHT20 3 Humidity 47.20 %RH
650 07/09/2026 05:33:00 WS-MOD-01Weather Station Module WS-DIR Arah Angin 62.30 °
651 07/09/2026 05:33:00 AC-REMOTE-01Remote AC AC-MODE AC Operating Mode 1.00 code
652 07/09/2026 05:33:00 PWR-L5-01Power Meter L5 PZEM 01 PZEM-L5-01-VOLT PZEM L5-01 Voltage 224.20 V
653 07/09/2026 05:33:00 WS-MOD-01Weather Station Module WS-WIND Kecepatan Angin 2.86 m/s
654 07/09/2026 05:33:00 MB-L3-01Mainboard Lantai 3 L3-SHT-01-RH SHT20 1 Humidity 47.30 %RH
655 07/09/2026 05:33:00 MB-L5-01Mainboard Lantai 5 L5-AI-04 Analog Input 4 3.05 V
656 07/09/2026 05:33:00 MB-L3-01Mainboard Lantai 3 L3-AI-05 Analog Input 5 3.12 V
657 07/09/2026 05:33:00 PWR-L5-02Power Meter L5 PZEM 02 PZEM-L5-02-POWER PZEM L5-02 Active Power 0.00 W
658 07/09/2026 05:33:00 AC-REMOTE-01Remote AC AC-SETPOINT AC Set Temperature 23.00 °C
659 07/09/2026 05:33:00 PWR-L5-01Power Meter L5 PZEM 01 PZEM-L5-01-CURR PZEM L5-01 Current 0.12 A
660 07/09/2026 05:33:00 MB-L3-01Mainboard Lantai 3 L3-LUX-01 Illuminance / LUX 1 0.70 lux
661 07/09/2026 05:33:00 MB-L5-01Mainboard Lantai 5 L5-RAD-02 Radiation 2 1.00 W/m²
662 07/09/2026 05:33:00 MB-L5-01Mainboard Lantai 5 L5-RAD-01 Radiation 1 1.00 W/m²
663 07/09/2026 05:33:00 MB-L3-01Mainboard Lantai 3 L3-SHT-03-T SHT20 3 Temperature 28.20 °C
664 07/09/2026 05:33:00 MB-L3-01Mainboard Lantai 3 L3-AI-03 Analog Input 3 3.12 V
665 07/09/2026 05:33:00 MB-L5-01Mainboard Lantai 5 L5-AI-02 Analog Input 2 3.05 V
666 07/09/2026 05:33:00 WS-MOD-01Weather Station Module WS-PRES Tekanan Udara 911.00 hPa
667 07/09/2026 05:33:00 MB-L3-01Mainboard Lantai 3 L3-SHT-01-T SHT20 1 Temperature 27.70 °C
668 07/09/2026 05:33:00 MB-L5-01Mainboard Lantai 5 L5-LUX-03 Illuminance / LUX 3 1.20 lux
669 07/09/2026 05:33:00 MB-L5-01Mainboard Lantai 5 L5-HFT-01 Heat Flow Temperature 1 22.20 °C
670 07/09/2026 05:33:00 MB-L5-01Mainboard Lantai 5 L5-BGT-02 Black Globe Temperature 2 26.00 °C
671 07/09/2026 05:33:00 AC-REMOTE-01Remote AC AC-POWER AC Power State 1.00 state
672 07/09/2026 05:33:00 PWR-L5-01Power Meter L5 PZEM 01 PZEM-L5-01-POWER PZEM L5-01 Active Power 10.50 W
673 07/09/2026 05:33:00 MB-L3-01Mainboard Lantai 3 L3-LUX-03 Illuminance / LUX 3 1.20 lux
674 07/09/2026 05:32:00 MB-L5-01Mainboard Lantai 5 L5-ST-01 Surface Temperature 1 22.30 °C
675 07/09/2026 05:32:00 MB-L5-01Mainboard Lantai 5 L5-SHT-01-RH SHT20 1 Humidity 47.60 %RH
676 07/09/2026 05:32:00 PWR-L5-02Power Meter L5 PZEM 02 PZEM-L5-02-FREQ PZEM L5-02 Frequency 50.00 Hz
677 07/09/2026 05:32:00 PWR-L5-02Power Meter L5 PZEM 02 PZEM-L5-02-VOLT PZEM L5-02 Voltage 224.20 V
678 07/09/2026 05:32:00 MB-L3-01Mainboard Lantai 3 L3-AI-04 Analog Input 4 3.12 V
679 07/09/2026 05:32:00 MB-L5-01Mainboard Lantai 5 L5-AI-03 Analog Input 3 3.05 V
680 07/09/2026 05:32:00 MB-L3-01Mainboard Lantai 3 L3-SHT-02-RH SHT20 2 Humidity 46.50 %RH
681 07/09/2026 05:32:00 MB-L5-01Mainboard Lantai 5 L5-HFT-02 Heat Flow Temperature 2 21.40 °C
682 07/09/2026 05:32:00 MB-L5-01Mainboard Lantai 5 L5-BGT-03 Black Globe Temperature 3 25.60 °C
683 07/09/2026 05:32:00 PWR-L5-01Power Meter L5 PZEM 01 PZEM-L5-01-FREQ PZEM L5-01 Frequency 50.00 Hz
684 07/09/2026 05:32:00 MB-L3-01Mainboard Lantai 3 L3-LUX-05 Illuminance / LUX 5 2.60 lux
685 07/09/2026 05:32:00 MB-L3-01Mainboard Lantai 3 L3-SHT-03-RH SHT20 3 Humidity 46.30 %RH
686 07/09/2026 05:32:00 MB-L5-01Mainboard Lantai 5 L5-SHT-01-T SHT20 1 Temperature 27.80 °C
687 07/09/2026 05:32:00 AC-REMOTE-01Remote AC AC-FAN AC Fan Speed 0.00 code
688 07/09/2026 05:32:00 MB-L5-01Mainboard Lantai 5 L5-SHT-02-T SHT20 2 Temperature 28.00 °C
689 07/09/2026 05:32:00 WS-MOD-01Weather Station Module WS-TEMP Suhu Udara 18.00 °C
690 07/09/2026 05:32:00 MB-L3-01Mainboard Lantai 3 L3-AI-02 Analog Input 2 3.12 V
691 07/09/2026 05:32:00 MB-L5-01Mainboard Lantai 5 L5-LUX-01 Illuminance / LUX 1 0.50 lux
692 07/09/2026 05:32:00 MB-L3-01Mainboard Lantai 3 L3-RAD-01 Radiation 1 1.00 W/m²
693 07/09/2026 05:32:00 MB-L3-01Mainboard Lantai 3 L3-LUX-04 Illuminance / LUX 4 0.50 lux
694 07/09/2026 05:32:00 MB-L5-01Mainboard Lantai 5 L5-AI-01 Analog Input 1 3.05 V
695 07/09/2026 05:32:00 PWR-L5-02Power Meter L5 PZEM 02 PZEM-L5-02-ENERGY PZEM L5-02 Energy 0.04 kWh
696 07/09/2026 05:32:00 PWR-L5-01Power Meter L5 PZEM 01 PZEM-L5-01-PF PZEM L5-01 Power Factor 0.39
697 07/09/2026 05:32:00 MB-L5-01Mainboard Lantai 5 L5-SHT-02-RH SHT20 2 Humidity 46.50 %RH
698 07/09/2026 05:32:00 MB-L5-01Mainboard Lantai 5 L5-ST-02 Surface Temperature 2 21.60 °C
699 07/09/2026 05:32:00 MB-L5-01Mainboard Lantai 5 L5-BGT-01 Black Globe Temperature 1 25.90 °C
700 07/09/2026 05:32:00 MB-L5-01Mainboard Lantai 5 L5-SHT-03-T SHT20 3 Temperature 28.00 °C
Menampilkan maksimal 100 data per halaman